Weather History for KCON - March, 2013

Change the Weather History Date:

Wednesday, March 20, 2013

  Actual Average Record
Temperature  
Mean Temperature 29 °F 34 °F  
Max Temperature 36 °F 45 °F 81 °F (2012)
Min Temperature 22 °F 24 °F 1 °F (1872)
Degree Days  
Heating Degree Days 36 31  
Month to date heating degree days 661 677  
Since 1 July heating degree days 5590 5937  
Cooling Degree Days 0 0  
Month to date cooling degree days 0 0  
Year to date cooling degree days 0 0  
Moisture  
Dew Point 19 °F    
Average Humidity 74    
Maximum Humidity 100    
Minimum Humidity 47    
Precipitation  
Precipitation 0.01 in 0.11 in 1.31 in (1975)
Month to date precipitation 1.59 2.03  
Year to date precipitation 6.68 7.35  
Snow  
Snow 0.20 in 0.30 in 8.60 in (1937)
Month to date snowfall 16.0 8.0  
Since 1 July snowfall 83.2 55.5  
Snow Depth 14.00 in    
Sea Level Pressure  
Sea Level Pressure 29.71 in    
Wind  
Wind Speed 9 mph (WSW)    
Max Wind Speed 23 mph    
Max Gust Speed 31 mph    
Visibility 9 miles    
Events Snow    
T = Trace of Precipitation, MM = Missing Value Source: NWS Daily Summary

Daily Weather History Graph

Daily Weather History Graph

Search for Another Location

Airport or City:

Trip Planner

Search our weather history database for the weather conditions in past years. The results will help you decide how hot, cold, wet, or windy it might be!

Date:

Astronomy

Mar. 20, 2013 Rise Set
Actual Time 6:48 AM EDT 6:58 PM EDT
Civil Twilight 6:20 AM EDT 7:27 PM EDT
Nautical Twilight 5:47 AM EDT 8:00 PM EDT
Astronomical Twilight 5:13 AM EDT 8:34 PM EDT
Moon 12:22 PM EDT (3/20) 2:35 AM EDT (3/20)
Length of Visible Light 13h 06m
Length of Day
12h 09m
First Quarter, 59% of the Moon is Illuminated
Mar 20
First Quarter
Mar 27
Full
Apr 3
Last Quarter
Apr 10
New
Apr 18
First Quarter

Hourly Weather History & Observations

Time (EDT) Temp. Windchill Dew Point Humidity Pressure Visibility Wind Dir Wind Speed Gust Speed Precip Events Conditions
12:07 AM 24.8 °F 16.1 °F 21.2 °F 86% 29.71 in 2.5 mi NNW 8.1 mph - 0.01 in Snow Light Snow
12:16 AM 24.8 °F 16.1 °F 21.2 °F 86% 29.71 in 3.0 mi NNW 8.1 mph - 0.01 in Snow Light Snow
12:51 AM 24.1 °F 16.0 °F 21.0 °F 88% 29.72 in 5.0 mi NNW 6.9 mph - 0.01 in Snow Light Snow
1:51 AM 23.0 °F - 21.0 °F 92% 29.72 in 10.0 mi Calm Calm - 0.00 in   Overcast
2:04 AM 24.8 °F - 21.2 °F 86% 29.70 in 10.0 mi Calm Calm - N/A   Overcast
2:24 AM 24.8 °F - 21.2 °F 86% 29.69 in 3.0 mi Calm Calm - 0.00 in Snow Light Snow
2:51 AM 21.9 °F - 21.0 °F 96% 29.70 in 10.0 mi Calm Calm - 0.00 in   Overcast
3:51 AM 23.0 °F - 21.9 °F 96% 29.70 in 10.0 mi Calm Calm - N/A   Overcast
4:25 AM 24.8 °F 20.5 °F 21.2 °F 86% 29.67 in 10.0 mi SSW 3.5 mph - N/A   Overcast
4:51 AM 24.1 °F 18.2 °F 21.9 °F 91% 29.69 in 10.0 mi SSW 4.6 mph - N/A   Overcast
5:26 AM 24.8 °F 20.5 °F 21.2 °F 86% 29.67 in 10.0 mi South 3.5 mph - N/A   Overcast
5:51 AM 24.1 °F 19.7 °F 21.0 °F 88% 29.70 in 10.0 mi South 3.5 mph - N/A   Overcast
6:51 AM 25.0 °F 19.3 °F 21.0 °F 85% 29.70 in 10.0 mi South 4.6 mph - 0.00 in   Overcast
7:51 AM 26.1 °F 21.9 °F 19.9 °F 78% 29.71 in 10.0 mi West 3.5 mph - N/A   Overcast
8:51 AM 26.1 °F 19.4 °F 19.9 °F 78% 29.71 in 10.0 mi WSW 5.8 mph - N/A   Scattered Clouds
9:51 AM 28.9 °F 19.8 °F 19.0 °F 67% 29.70 in 10.0 mi West 10.4 mph 18.4 mph N/A   Clear
10:51 AM 30.9 °F 17.8 °F 17.1 °F 57% 29.70 in 10.0 mi WNW 23.0 mph 31.1 mph N/A   Mostly Cloudy
11:51 AM 30.0 °F 18.7 °F 18.0 °F 61% 29.71 in 10.0 mi West 16.1 mph 21.9 mph N/A   Overcast
12:51 PM 32.0 °F 20.8 °F 17.1 °F 54% 29.71 in 10.0 mi WNW 17.3 mph 29.9 mph 0.00 in   Overcast
1:51 PM 34.0 °F 23.4 °F 18.0 °F 52% 29.70 in 10.0 mi WSW 17.3 mph 24.2 mph N/A   Overcast
2:51 PM 34.0 °F 24.6 °F 17.1 °F 50% 29.69 in 10.0 mi WSW 13.8 mph 26.5 mph N/A   Overcast
3:51 PM 34.0 °F 23.4 °F 17.1 °F 50% 29.69 in 10.0 mi WSW 17.3 mph 23.0 mph N/A   Overcast
4:51 PM 36.0 °F 29.0 °F 18.0 °F 48% 29.70 in 10.0 mi West 9.2 mph 20.7 mph N/A   Mostly Cloudy
5:51 PM 34.0 °F 22.1 °F 18.0 °F 52% 29.71 in 10.0 mi West 21.9 mph 29.9 mph N/A   Overcast
6:51 PM 33.1 °F 23.9 °F 16.0 °F 50% 29.73 in 10.0 mi WSW 12.7 mph - N/A   Clear
7:51 PM 30.9 °F 22.8 °F 17.1 °F 57% 29.74 in 10.0 mi WSW 9.2 mph 24.2 mph N/A   Clear
8:51 PM 30.0 °F 24.1 °F 16.0 °F 56% 29.77 in 10.0 mi SW 5.8 mph - N/A   Clear
9:51 PM 28.0 °F 21.7 °F 16.0 °F 61% 29.77 in 10.0 mi SW 5.8 mph - N/A   Clear
10:51 PM 27.0 °F 21.6 °F 14.0 °F 58% 29.78 in 10.0 mi SW 4.6 mph - N/A   Clear
11:51 PM 26.1 °F 20.5 °F 15.1 °F 63% 29.78 in 10.0 mi SW 4.6 mph - N/A   Clear